{"data":{"norad_id":45452,"intl_designator":"2020-020AE","name":"ONEWEB-0082","alt_names":[],"object_type":"PAYLOAD","status":"ACTIVE","operator":null,"country":"UK","launch_date":"2020-03-21","launch_site_code":"TYMSC","launch_vehicle":null,"mission":null,"orbit_class":"UNKNOWN","rcs_meters":null,"size_class":null,"mass_kg":null,"dimensions":null,"purposes":["comms"],"wikipedia_slug":null,"has_3d_model":false,"image_url":null,"decayed_at":null,"tle_current":{"epoch":"2026-05-25T03:20:07.947168Z","epoch_age_seconds":66241,"freshness":"FRESH","line1":"1 45452U 20020AE  26145.13898087 -.00000075  00000+0 -24710-3 0  9996","line2":"2 45452  87.8917  25.6431 0001902  75.0891 285.0448 13.11414769299654","mean_motion":13.11414769,"eccentricity":0.0001902,"inclination_deg":87.8917,"raan_deg":25.6431,"arg_perigee_deg":75.0891,"mean_anomaly_deg":285.0448,"bstar":-0.0002471,"rev_number":29965,"period_min":109.80507723716,"perigee_km":1216.2463742445,"apogee_km":1219.135827254,"semimajor_km":7595.8281007493,"source":"CELESTRAK","updated_at":"2026-05-25T13:38:22.347033Z"}}}